Probability
0 0 0 0 0 0 0 0 0 0 0 0 0 0 0 0 0 0 0 0 0 0 0 0 0 0 0 0 0 0 0 0 0 0 0 0 0 0 0 0 0 0 0 0 0 0 0 0 0
0 0 0 0 0 0 0 0 0 0 0 0 0 0 0 0 0 0 0 0 0 0 0 0 0 0 0 0 0 0 0 0 0 0 0 0 0 0 0 0 0 0 0 0 0 0 0 0 0
0 0 0 0 0 0 0 0 0 0 0 0 0 0 0 0 0 0 0 0 0 0 0 0 0 0 0 0 0 0 0 0 0 0 0 0 0 0 0 0 0 0 0 0 0 0 0 0 0
0 0 0 0 0 0 0 0 0 0 0 0 0 0 0 0 0 0 0 0 0 0 0 0 0 0 0 0 0 0 0 0 0 0 0 0 0 0 0 0 0 0 0 0 0 0 0 0 0
0 0 0 0 0 0 0 0 0 0 0 0 0 0 0 0 0 0 0 0 0 0 0 0 0 0 0 0 0 0 0 0 0 0 0 0 0 0 0 0 0 0 0 0 0 0 0 0 0
0 0 0 0 0 0 0 0 0 0 0 0 0 0 0 0 0 0 0 0 0 0 0 0 0 0 0 0 0 0 0 0 0 0 0 0 0 0 0 0 0 0 0 0 0 0 0 0 0
0 0 0 0 0 0 0 0 0 0 0 0 0 0 0 0 0 0 0 0 0 0 0 0 0 0 0 0 0 0 0 0 0 0 0 0 0 0 0 0 0 0 0 0 0 0 0 0 0
0 0 0 0 0 0 0 0 0 0 0 0 0 0 0 0 0 0 0 0 0 0 0 0 0 0 0 0 0 0 0 0 0 0 0 0 0 0 0 0 0 0 0 0 0 0 0 0 0
0 0 0 0 0 0 0 0 0 0 0 0 0 0 0 0 0 0 0 0 0 0 0 0 0 0 0 0 0 0 0 0 0 0 0 0 0 0 0 0 0 0 0 0 0 0 0 0 0
0 0 0 0 0 0 0 0 0 0 0 0 0 0 0 0 0 0 0 0 0 0 0 0 0 0 0 0 0 0 0 0 0 0 0 0 0 0 0 0 0 0 0 0 0 0 0 0 0
0 0 0 0 0 0 0 0 0 0 0 0 0 0 0 0 0 0 0 0 0 0 0 0 0 0 0 0 0 0 0 0 0 0 0 0 0 0 0 0 0 0 0 0 0 0 0 0 0
0 0 0 0 0 0 0 0 0 0 0 0 0 0 0 0 0 0 0 0 0 0 0 0 0 0 0 0 0 0 0 0 0 0 0 0 0 0 0 0 0 0 0 0 0 0 0 0 0
0 0 0 0 0 0 0 0 0 0 0 0 0 0 0 0 0 0 0 0 0 0 0 0 0 0 0 0 0 0 0 0 0 0 0 0 0 0 0 0 0 0 0 0 0 0 0 0 0
0 0 0 0 0 0 0 0 0 0 0 0 0 0 0 0 0 0 0 0 0 0 0 0 0 0 0 0 0 0 0 0 0 0 0 0 0 0 0 0 0 0 0 0 0 0 0 0 0
0 0 0 0 0 0 0 0 0 0 0 0 0 0 0 0 0 0 0 0 0 0 0 0 0 0 0 0 0 0 0 0 0 0 0 0 0 0 0 0 0 0 0 0 0 0 0 0 0
0 0 0 0 0 0 0 0 0 0 0 0 0 0 0 0 0 0 0 0 0 0 0 0 0 0 0 0 0 0 0 0 0 0 0 0 0 0 0 0 0 0 0 0 0 0 0 0 0
0 0 0 0 0 0 0 0 0 0 0 0 0 0 0 0 0 0 0 0 0 0 0 0 0 0 0 0 0 0 0 0 0 0 0 0 0 0 0 0 0 0 0 0 0 0 0 0 0
0 0 0 0 0 0 0 0 0 0 0 0 0 0 0 0 0 0 0 0 0 0 0 0 0 0 0 0 0 0 0 0 0 0 0 0 0 0 0 0 0 0 0 0 0 0 0 0 0
0 0 0 0 0 0 0 0 0 0 0 0 0 0 0 0 0 0 0 0 0 0 0 0 0 0 0 0 0 0 0 0 0 0 0 0 0 0 0 0 0 0 0 0 0 0 0 0 0
0 0 0 0 0 0 0 0 0 0 0 0 0 0 0 0 0 0 0 0 0 0 0 0 0 0 0 0 0 0 0 0 0 0 0 0 0 0 0 0 0 0 0 0 0 0 0 0 0
0 0 0 0 0 0 0 0 0 0 0 0 0 0 0 0 0 0 0 0 0 0 0 0 0 0 0 0 0 0 0 0 0 0 0 0 0 0 0 0 0 0 0 0 0 0 0 0 0
0 0 0 0 0 0 0 0 0 0 0 0 0 0 0 0 0 0 0 0 0 0 0 0 0 0 0 0 0 0 0 0 0 0 0 0 0 0 0 0 0 0 0 0 0 0 0 0 0
0 0 0 0 0 0 0 0 0 0 0 0 0 0 0 0 0 0 0 0 0 0 0 0 0 0 0 0 0 0 0 0 0 0 0 0 0 0 0 0 0 0 0 0 0 0 0 0 0
0 0 0 0 0 0 0 0 0 0 0 0 0 0 0 0 0 0 0 0 0 0 0 0 0 0 0 0 0 0 0 0 0 0 0 0 0 0 0 0 0 0 0 0 0 0 0 0 0
0 0 0 0 0 0 0 0 0 0 0 0 0 0 0 0 0 0 0 0 0 0 0 0 0 0 0 0 0 0 0 0 0 0 0 0 0 0 0 0 0 0 0 0 0 0 0 0 0
0 0 0 0 0 0 0 0 0 0 0 0 0 0 0 0 0 0 0 0 0 0 0 0 0 0 0 0 0 0 0 0 0 0 0 0 0 0 0 0 0 0 0 0 0 0 0 0 0
0 0 0 0 0 0 0 0 0 0 0 0 0 0 0 0 0 0 0 0 0 0 0 0 0 0 0 0 0 0 0 0 0 0 0 0 0 0 0 0 0 0 0 0 0 0 0 0 0
0 0 0 0 0 0 0 0 0 0 0 0 0 0 0 0 0 0 0 0 0 0 0 0 0 0 0 0 0 0 0 0 0 0 0 0 0 0 0 0 0 0 0 0 0 0 0 0 0
0 0 0 0 0 0 0 0 0 0 0 0 0 0 0 0 0 0 0 0 0 0 0 0 0 0 0 0 0 0 0 0 0 0 0 0 0 0 0 0 0 0 0 0 0 0 0 0 0
0 0 0 0 0 0 0 0 0 0 0 0 0 0 0 0 0 0 0 0 0 0 0 0 0 0 0 0 0 0 0 0 0 0 0 0 0 0 0 0 0 0 0 0 0 0 0 0 0
Wind_Speed
5 3 3 5 7 6 2 2 2 2 2 1 2 5 7 6 4 2 2 6 10 9 7 8 10 11 11 11 11 10 11 11 12 14 14 15 15 14 15 15 15 15 16 17 17 17 17 17 17
2 2 6 7 6 2 3 3 4 4 4 4 3 4 4 1 1 5 4 6 10 9 7 7 10 11 11 11 11 11 11 11 12 13 14 14 14 14 14 14 14 14 15 16 16 16 16 16 16
1 5 6 5 4 6 5 4 5 1 3 3 3 2 2 3 3 6 5 9 9 8 7 8 11 12 12 11 11 11 11 11 12 13 14 14 14 14 14 14 13 14 14 15 15 15 16 16 16
3 6 6 5 2 4 4 4 5 5 3 2 4 3 1 0 4 5 8 10 10 7 7 8 11 12 12 11 11 11 11 11 12 13 13 14 14 14 14 13 13 13 13 13 14 15 15 15 16
5 5 4 2 1 1 1 3 6 4 4 2 4 4 1 2 2 7 9 10 10 8 6 8 11 11 12 12 11 11 11 11 12 12 13 13 13 13 13 12 12 12 12 13 13 14 15 15 16
6 5 4 1 2 2 1 4 4 3 3 3 5 5 2 2 5 8 9 8 8 9 7 7 10 11 10 10 11 11 11 11 11 12 12 12 12 12 12 12 12 12 12 12 13 14 15 15 16
6 5 4 4 1 1 2 5 4 4 4 5 7 5 1 1 4 7 8 7 7 7 7 6 6 7 9 9 9 9 9 9 10 11 11 11 11 11 11 10 11 11 11 12 13 14 14 15 15
6 6 3 3 3 3 3 5 3 6 4 3 5 7 5 5 6 6 7 6 6 6 7 6 6 5 5 6 8 9 9 8 9 10 10 9 9 10 9 8 9 11 11 11 12 13 14 14 14
4 6 3 5 6 4 4 4 2 2 5 2 2 3 3 7 9 8 6 5 7 7 7 7 6 6 5 5 6 7 8 8 9 8 10 8 5 5 5 6 8 10 10 11 12 13 13 13 12
5 4 6 5 6 5 6 5 6 4 3 2 2 1 2 8 11 11 10 12 12 11 10 8 8 7 6 5 4 4 4 5 5 5 5 4 4 4 4 7 8 8 8 10 11 12 11 8 5
4 5 4 2 2 5 6 4 4 8 5 8 8 7 8 8 10 11 11 11 11 10 10 9 9 8 7 5 4 3 2 3 4 5 5 4 4 3 3 3 4 4 5 4 6 6 3 3 3
4 1 1 1 1 5 7 6 4 7 7 3 6 8 11 14 15 15 14 11 9 8 11 10 10 9 8 6 5 4 3 3 3 4 6 5 3 3 3 2 3 3 2 3 3 3 3 4 4
3 2 1 2 3 3 5 3 3 6 5 2 5 9 12 15 13 11 8 7 8 10 11 11 11 11 10 8 6 6 5 5 4 4 5 5 5 5 4 3 3 3 3 3 3 3 4 4 3
4 3 2 2 2 2 2 0 1 5 1 3 5 9 10 13 12 9 9 10 11 12 11 10 12 11 10 9 8 7 6 5 5 5 6 6 5 5 5 4 4 3 3 3 3 4 4 3 3
4 5 2 1 1 1 2 4 6 3 1 3 5 6 8 9 8 11 11 12 12 10 9 10 11 11 12 11 10 7 6 6 6 6 6 7 6 6 6 5 5 4 4 4 3 3 3 3 2
5 4 1 2 1 1 3 7 5 1 2 4 5 6 7 9 10 10 9 8 8 8 9 10 9 11 12 11 10 7 7 7 6 6 6 8 7 7 6 6 6 5 5 4 4 4 3 3 3
3 3 4 2 2 2 4 8 4 1 0 4 6 7 8 9 11 12 11 10 9 9 9 10 11 12 12 11 8 8 7 8 7 6 7 8 9 8 7 6 6 6 5 5 5 3 3 4 3
6 5 4 4 2 3 3 7 8 5 3 6 8 8 8 10 15 12 11 10 9 8 9 10 11 11 10 8 7 6 7 8 7 7 8 10 9 10 9 6 7 7 6 6 6 5 3 3 3
8 7 5 3 1 4 5 8 11 8 5 9 9 9 10 12 10 7 8 9 9 9 10 12 12 12 10 8 9 9 10 8 7 7 9 11 11 12 11 8 8 8 8 9 9 5 5 3 3
6 5 4 1 1 2 3 8 9 7 8 9 9 10 10 9 8 7 7 7 10 11 12 13 14 12 12 11 8 5 5 5 6 6 7 10 11 11 10 11 9 9 8 9 9 7 5 4 6
4 6 5 4 2 4 4 8 7 6 4 6 8 8 8 9 10 7 6 7 7 10 12 12 14 13 12 10 5 3 3 2 4 6 8 9 10 11 11 12 10 10 10 10 12 12 11 8 8
5 4 5 5 3 2 2 5 8 6 9 8 7 5 6 6 6 6 5 5 6 8 7 9 9 10 9 9 8 10 9 10 8 6 6 7 9 10 11 11 12 11 10 11 11 13 10 8 8
5 4 5 4 4 1 1 2 11 5 6 8 5 5 6 5 4 3 3 3 3 2 3 5 6 7 7 8 10 10 10 9 4 3 5 6 6 8 10 10 10 11 10 11 10 11 12 10 10
9 8 8 6 5 2 4 5 9 6 7 5 4 6 6 6 5 4 4 4 5 4 2 1 3 4 5 7 8 9 10 8 5 5 5 5 4 5 8 8 9 10 9 10 11 11 13 12 11
5 8 4 1 1 7 1 4 12 9 6 5 6 7 7 5 4 5 7 7 7 6 5 3 3 2 2 4 6 7 7 7 8 6 6 5 4 5 7 8 9 8 9 9 9 10 12 13 12
7 9 10 8 7 5 2 8 11 7 6 5 5 4 3 4 4 5 6 6 6 6 6 5 4 2 1 1 2 2 3 3 4 5 5 6 5 6 6 7 8 8 8 8 8 9 10 10 13
8 5 7 8 3 1 6 8 12 5 3 0 1 2 3 4 5 5 6 6 6 7 6 5 4 4 2 1 0 1 2 3 4 4 4 4 4 4 6 6 7 8 8 9 9 9 10 10 12
6 11 6 7 7 5 5 5 6 5 3 2 3 3 3 4 5 6 6 6 6 6 5 6 5 4 3 2 1 1 1 2 3 3 4 5 5 5 5 6 7 8 8 8 9 10 9 11 11
6 5 6 6 6 8 5 9 8 6 4 4 3 3 4 4 4 5 5 5 6 6 7 7 7 6 6 5 3 3 3 3 3 3 4 4 4 5 6 6 7 8 8 8 9 11 10 11 11
5 9 9 8 6 5 5 9 4 5 4 4 4 4 4 5 4 5 5 6 7 8 7 7 7 7 6 5 4 4 4 4 4 4 4 4 5 5 6 6 6 7 8 8 10 11 11 12 13
Wind_Direction
6 35 65 54 53 53 142 207 183 162 198 130 132 145 153 159 167 178 132 138 131 134 137 131 125 123 120 116 112 110 109 106 104 102 100 98 97 96 95 94 93 92 90 90 90 90 89 88 88
7 44 53 57 86 100 249 221 186 193 168 121 85 99 115 143 100 121 139 148 136 136 134 131 128 128 125 120 116 114 112 109 107 104 102 100 98 98 97 96 95 93 92 91 92 93 93 92 91
62 52 76 73 119 176 205 207 189 149 147 132 98 81 139 166 157 164 168 145 134 133 132 136 134 133 129 124 121 118 115 112 109 106 105 103 101 100 98 97 95 94 93 93 94 96 96 94 93
80 47 55 78 181 208 210 192 165 135 137 110 121 100 35 124 174 172 143 139 133 132 133 142 140 138 134 129 126 123 120 115 113 109 106 105 104 102 101 100 97 95 95 96 99 100 99 98 96
60 74 60 45 278 267 239 159 150 152 154 128 125 127 131 350 112 131 139 141 140 137 138 146 144 141 139 136 133 130 125 120 117 113 110 109 108 107 106 104 101 98 96 97 102 104 102 100 98
61 71 93 193 290 349 119 140 140 138 140 132 128 133 177 0 133 145 144 144 145 143 142 146 147 145 144 142 139 136 131 126 122 119 116 115 114 113 111 109 107 102 100 101 103 106 103 101 99
112 111 158 176 175 326 172 148 159 156 165 186 155 132 264 241 171 149 140 137 139 143 143 145 147 148 148 145 141 138 134 130 127 124 121 118 117 116 113 113 113 110 106 106 106 107 106 105 103
125 108 110 155 167 227 169 157 177 162 177 141 142 150 206 202 151 131 123 132 142 148 152 151 148 145 143 144 145 141 137 131 125 119 116 115 114 113 110 111 117 115 112 111 111 111 110 109 107
95 82 160 194 186 213 163 155 144 155 124 153 212 196 221 139 130 129 131 148 162 168 167 161 156 151 145 145 148 144 139 132 124 120 120 110 101 102 105 116 118 118 117 117 115 113 111 108 108
93 134 210 199 190 184 172 167 163 133 138 199 229 193 124 136 151 162 171 177 181 183 181 175 169 162 154 151 142 141 134 132 128 128 124 114 112 111 112 119 117 116 117 120 120 115 109 101 93
130 176 210 191 179 157 154 163 162 141 198 213 202 181 153 159 169 181 186 186 188 186 185 184 179 171 166 156 154 149 137 135 139 142 137 128 119 114 107 106 105 102 99 93 103 97 91 98 103
121 178 187 166 138 152 158 154 173 189 212 238 210 162 165 174 185 191 192 189 183 184 192 189 185 181 178 168 170 167 162 162 163 161 153 144 140 139 137 129 124 114 106 110 103 106 107 104 107
139 154 96 76 85 124 126 156 202 239 254 37 128 151 180 188 196 199 194 186 185 193 194 192 189 189 185 180 182 181 181 182 176 168 170 163 160 162 157 152 147 141 133 135 134 132 130 125 120
150 113 85 57 63 79 137 182 262 264 189 131 154 181 197 201 200 193 194 196 198 200 197 192 193 193 191 191 191 191 190 185 178 183 183 176 170 168 167 167 168 166 158 152 151 152 148 145 142
104 95 56 29 62 43 105 277 244 263 139 184 201 212 220 226 215 210 208 206 204 201 194 193 195 194 196 198 198 196 195 189 190 193 188 185 180 176 175 177 183 181 161 150 142 140 136 147 157
73 93 192 279 168 102 152 258 271 348 195 230 237 239 240 240 232 231 224 218 206 197 195 195 193 197 201 201 200 200 199 198 199 195 192 193 189 182 180 187 194 177 165 165 165 162 163 178 183
66 149 209 258 184 145 179 245 278 51 200 265 262 251 246 251 248 239 228 222 211 203 197 195 196 198 201 201 200 202 202 205 204 198 197 197 196 191 191 197 193 175 176 180 180 178 175 185 191
182 183 199 224 200 157 208 259 279 282 272 273 270 261 251 247 246 236 226 222 217 209 202 201 201 202 196 195 198 204 210 211 208 205 203 198 199 197 199 202 192 181 182 187 190 184 178 177 170
155 155 183 216 167 171 231 268 279 285 276 268 266 259 254 253 257 250 231 218 212 211 208 207 206 203 192 195 203 210 217 213 211 211 205 202 201 199 203 204 196 190 196 200 195 178 178 179 145
128 142 162 92 82 148 280 277 273 271 255 246 254 260 257 265 278 263 243 222 213 213 213 212 212 204 200 205 201 201 202 206 210 207 209 208 205 203 204 206 203 199 202 200 192 180 179 181 177
145 159 172 162 102 50 346 306 298 292 289 279 260 257 263 259 267 272 257 236 221 218 214 213 212 209 205 199 176 155 157 173 199 209 215 213 210 207 206 208 207 203 203 206 202 196 190 199 200
198 204 152 135 114 299 20 298 291 301 312 297 291 294 290 285 274 275 274 262 236 231 220 215 212 208 201 188 187 192 203 217 218 211 211 206 208 213 211 210 210 209 208 211 206 204 204 198 203
163 106 111 107 122 28 326 226 281 313 285 280 296 327 328 323 310 309 321 308 304 273 225 212 204 201 190 188 196 202 216 226 215 192 205 209 212 218 218 216 215 216 215 216 209 205 208 210 211
130 83 62 53 74 262 218 188 272 247 232 270 311 332 339 345 1 13 16 27 24 26 40 124 173 186 180 185 194 204 216 219 211 209 212 215 219 224 225 223 225 224 221 219 215 211 212 215 219
122 105 77 18 346 245 246 213 249 251 246 255 286 308 326 340 10 22 26 27 27 31 36 55 101 130 160 181 197 208 217 215 218 219 217 217 221 226 227 224 229 230 228 223 217 216 217 217 218
177 144 158 181 210 260 241 233 253 262 272 267 266 280 331 17 35 39 33 34 31 36 39 46 62 68 91 160 209 222 225 223 232 229 224 223 225 227 226 225 232 235 233 229 223 224 224 220 222
146 170 145 119 112 263 257 272 296 287 285 250 131 81 57 45 46 45 38 38 36 37 36 40 52 49 42 33 349 270 251 245 252 254 244 242 242 240 232 230 234 237 235 233 230 236 232 225 225
147 141 123 137 156 221 269 258 241 241 206 137 98 92 73 62 55 50 43 38 35 35 36 42 48 47 35 33 21 332 289 267 263 262 257 256 255 248 242 239 239 241 240 237 237 244 241 237 234
127 147 141 138 155 164 234 261 227 210 177 155 144 122 104 81 66 53 45 38 39 39 36 36 33 30 23 16 7 358 339 317 295 278 273 269 263 252 245 242 241 242 245 242 243 246 244 245 245
175 172 150 160 199 186 185 261 267 203 203 174 151 118 95 81 67 56 48 41 39 36 32 33 29 26 13 5 6 2 352 344 332 314 302 289 277 265 254 249 246 246 246 244 244 250 247 247 249